User: anonymous
Location: Caltech
(34.1382°N, 118.1253°W)
Time: 14:04:32
(UTC-07:00)
Language:

ERBS - Orbit

View from above orbital plane
View from above orbital plane
View from above satellite
View from above satellite

Ground track
Ground track

The orbit data is extracted from the following two-line orbital elements,

1 15354U 84108B   14112.12074920  .00013149  00000-0  48735-3 0  4660
2 15354 057.0164 009.5188 0022672 092.1487 268.2157 15.27779306621056
Epoch (UTC): 22 April 2014 02:53:52
Eccentricity: 0.0022672
inclination: 57.0164°
perigee height: 467 km
apogee height: 498 km
right ascension of ascending node: 9.5188°
argument of perigee: 92.1487°
revolutions per day: 15.27779306
mean anomaly at epoch: 268.2157°
orbit number at epoch: 62105

The dashed part of the orbit path shows where the satellite is in the earth's shadow,  

DLR